Regional Weather Roundup
Issued by NWS

Home | Current Version | Previous Version | Graphics & Text | Print | Product List | Glossary On
Versions: 1 2 3 4 5 6 7 8 9 10 11 12 13 14 15 16 17 18 19 20 21 22 23 24 25 26 27 28 29 30 31 32 33 34 35 36 37 38 39 40 41 42 43 44 45 46 47 48 49 50
000
ASUS43 KMKX 310200
RWRWI

WISCONSIN REGIONAL WEATHER ROUNDUP
NATIONAL WEATHER SERVICE MILWAUKEE/SULLIVAN WI
900 PM CDT MON MAY 30 2016

NOTE: "FAIR" INDICATES FEW OR NO CLOUDS BELOW 12,000 FEET WITH NO
SIGNIFICANT WEATHER AND/OR OBSTRUCTIONS TO VISIBILITY.

WIZ001-002-006>008-014>016-023>028-310300-
NORTHWEST WISCONSIN

CITY           SKY/WX    TMP DP  RH WIND       PRES   REMARKS
SUPERIOR ARPT  CLOUDY    64  49  57 CALM      29.94R
ASHLAND        CLOUDY    64  48  56 NE5       29.96R
HAYWARD        CLEAR     65  59  81 CALM      29.94S
SIREN          PTCLDY    73  55  54 CALM      29.92S
CUMBERLAND     PTCLDY    70  50  49 SE3       29.94S
RICE LAKE      PTCLDY    74  53  48 CALM      29.95R
CHETEK         PTCLDY    72  55  54 CALM      29.94S
LADYSMITH      CLOUDY    73  56  54 CALM      29.97S
EAU CLAIRE     NOT AVBL
MENOMONIE      NOT AVBL
NEW RICHMOND   PTCLDY    72  53  51 SE5       29.92S
OSCEOLA        CLOUDY    72  58  61 E6        29.93S
$$

WIZ003>005-009-010-017-018-310300-
NORTH CENTRAL WISCONSIN

CITY           SKY/WX    TMP DP  RH WIND       PRES   REMARKS
MANITOWISH WTR NOT AVBL
ARBOR VITAE    CLEAR     65  54  67 CALM      29.99R
WOODRUFF       CLEAR     65  54  67 CALM      29.99R
RHINELANDER    PTCLDY    62  54  74 CALM      29.99S
EAGLE RIVER      N/A     63  53  70 CALM      29.99R
LAND O LAKES   CLEAR     62  52  70 CALM      30.01R
PHILLIPS       CLOUDY    67  58  74 CALM      29.97R
TOMAHAWK       CLOUDY    68  53  58 CALM      29.98S
MEDFORD        CLEAR     65  58  77 CALM      29.98R
MERRILL        MOCLDY    70  55  57 CALM      29.98S
$$

WIZ029-030-035-036-043>047-310300-
CENTRAL WISCONSIN

CITY           SKY/WX    TMP DP  RH WIND       PRES   REMARKS
WAUSAU         CLEAR     71  51  49 CALM      29.96S
MOSINEE        NOT AVBL
MARSHFIELD     CLEAR     71  53  52 E3        29.97R
STEVENS POINT  CLEAR     65  54  68 CALM      29.98S
WAUPACA        CLEAR     71  57  62 CALM      29.97S
WAUTOMA        CLEAR    N/A N/A N/A CALM      29.98R
WISC RAPIDS    CLEAR     65  53  65 SE3       29.99R
CAMP DOUGLAS   NOT AVBL
$$

WIZ011>013-019>022-031-037>040-048>050-310300-
NORTHEAST WISCONSIN

CITY           SKY/WX    TMP DP  RH WIND       PRES   REMARKS
ANTIGO         CLEAR     65  59  81 CALM      29.99S
SHAWANO        CLEAR     71  52  50 CALM      29.97S
OCONTO         CLEAR     66  59  77 CALM      29.95S
STURGEON BAY   NOT AVBL
GREEN BAY      CLEAR     70  61  73 SW3       29.97S
MANITOWOC      NOT AVBL
APPLETON       PTCLDY    70  50  49 CALM      29.97R
CLINTONVILLE   CLEAR     70  54  56 CALM      29.97S
OSHKOSH        CLEAR     69  54  58 CALM      29.98S
$$

WIZ032>034-041-042-053>061-310300-
SOUTHWEST WISCONSIN

CITY           SKY/WX    TMP DP  RH WIND       PRES   REMARKS
LA CROSSE      CLOUDY    74  56  53 E5        29.93S
SPARTA         CLOUDY    70  56  62 CALM      29.96S
VIROQUA        CLOUDY    73  49  43 SE6       29.98R
BOSCOBEL       CLOUDY    69  62  78 CALM      29.96R
PRAIRIE DU CHI CLOUDY    73  54  52 SE3       29.94R
PLATTEVILLE    PTCLDY    73  54  51 E7        29.96S
$$

WIZ056-057-062-063-064-067-068-310300-
SOUTH CENTRAL WISCONSIN

CITY           SKY/WX    TMP DP  RH WIND       PRES   REMARKS
REEDSBURG      CLEAR     71  56  59 CALM      29.96S
BARABOO/DELLS  CLEAR     71  51  48 CALM      29.97S
LONE ROCK      NOT AVBL
MINERAL POINT  CLOUDY    73  46  38 E6        29.98R
MADISON        CLOUDY    67  52  58 CALM      29.97S
MIDDLETON      CLOUDY    69  55  59 CALM      29.99R
WATERTOWN      CLEAR     69  56  62 CALM      29.98S
MONROE         CLEAR     73  46  38 NE5       29.97S
JANESVILLE     PTCLDY    75  50  41 NE7       29.96S
$$

WIZ051-052-058>065-066-070>072-310300-
SOUTHEAST WISCONSIN

CITY           SKY/WX    TMP DP  RH WIND       PRES   REMARKS
MILWAUKEE      PTCLDY    64  56  75 E3        29.99S
WAUKESHA       CLEAR     66  55  68 E9        30.00S
MILWAUKEE/TIMM CLEAR     70  52  52 SE5       30.00S
RACINE         CLEAR     64  56  75 E3        30.01R
BURLINGTON     CLEAR     69  56  61 E5        29.99R
KENOSHA        CLEAR     63  56  78 E5        29.99S
FOND DU LAC    CLEAR     68  56  65 CALM      29.98R
SHEBOYGAN      CLEAR     64  55  72 S6        30.00R
WEST BEND      CLEAR     66  57  72 CALM      30.00R
JUNEAU         CLEAR     73  53  48 SE3       29.99S
$$

LSZ147-162-310300-
LAKE SUPERIOR

STATION/POSITION TIME  TEMP    WIND        PRES    WAVE
                       AIR SEA DIR/SP/G            HT/PER
                 (UTC) (F)     (DEG/KT/KT) (MB)    (FT/S)
W MID LAKE BUOY  0050   50 38   80/  4/  4 1014.9R   1
DEVILS ISLAND    0100   70      80/ 12/ 13 1013.7S
SAXON HARBOR     0100   65      CALM  /  2 1013.5
$$

LMZ867-665-643>646-310300-
LAKE MICHIGAN

STATION/POSITION TIME  TEMP    WIND        PRES    WAVE
                       AIR SEA DIR/SP/G            HT/PER
                 (UTC) (F)     (DEG/KT/KT) (MB)    (FT/S)
CHAMBERS ISLAND  0140   66     170/  4/  6 1014.6R
N MID LAKE BUOY  0050   54 50  220/ 10/ 12 1014.2R   1/ 3
NORTHPORT PIER   0100   67     170/  4/  8 1014.2R
KEWAUNEE LAKESHO 0100                      1014.5
SHEBOYGAN LAKESH 0100   67     210/  6/  6 1015.5S
PORT WASHINGTON  0140   62     190/  4/  5 1016.3R
S MID LAKE BUOY  0050   61 58   90/  4/  6 1015.2S   0
KENOSHA   LAKESH 0100   60      30/  3/  5 1014.9S
$$

TC  - TEMPERATURE IN CELSIUS
VSB - VISIBILITY IN STATUTE MILES
WCI - WIND CHILL INDEX
HX  - HEAT INDEX




USA.gov is the U.S. government's official web portal to all federal, state and local government web resources and services.